Location: Orange Harbor Mobile Home Park
(26.6923°N, 81.7937°W)
Time: 08:14:23
(UTC+00:00)

ATLAS 2AS CENTAUR R/B - Pass Details

Date: 19 September 2020
Orbit: 939 x 1273 km, 63.7° (Epoch: 27 October)

Event Time Altitude Azimuth Distance (km) Brightness Sun altitude
Rises 02:17:25 0° 220° (SW) 4,124 5.9 -37.7°
Reaches altitude 10° 02:20:12 10° 225° (SW) 3,193 5.3 -38.2°
Maximum altitude 02:27:47 54° 301° (WNW) 1,507 3.5 -39.8°
Enters shadow 02:28:38 52° 322° (NW) 1,543 3.6 -39.9°
Exits shadow 02:33:14 21° 10° (N) 2,540 4.7 -40.8°
Drops below altitude 10° 02:35:33 10° 17° (NNE) 3,260 5.3 -41.3°
Sets 02:38:27 0° 22° (NNE) 4,216 5.9 -41.9°
